FW7560 Weather Reports


Display with metric or nautical units.
time (UTC)temp
F
wind
direction
speed
MPH
gust
MPH
rain 1hr
in
rain 24hr
in
rain mn
in
humidity
%
barometer
mb
20260510174558 73 0.0 0.0 0.00 0.00 0.00 51 1017.4
20260510173105 72 0.0 0.0 0.00 0.00 0.00 50 1017.5
20260510171557 71 0.0 0.0 0.00 0.00 0.00 53 1017.6
20260510170106 71 0.0 0.0 0.00 0.00 0.00 52 1017.6
20260510164553 70 0.0 0.0 0.00 0.00 0.00 56 1017.7
20260510163051 69 0.0 0.0 0.00 0.00 0.00 55 1017.7
20260510161555 69 0.0 0.0 0.00 0.00 0.00 54 1017.8
20260510160052 69 0.0 0.0 0.00 0.00 0.00 55 1017.6
20260510154554 70 0.0 0.0 0.00 0.00 0.00 54 1017.7
20260510153054 69 0.0 0.0 0.00 0.00 0.00 57 1017.7
20260510151558 69 0.0 0.0 0.00 0.00 0.00 58 1017.7
20260510150055 68 0.0 0.0 0.00 0.00 0.00 57 1017.7
20260510144555 68 0.0 0.0 0.00 0.00 0.00 57 1017.6
20260510143054 67 0.0 0.0 0.00 0.00 0.00 61 1017.5
20260510141602 66 0.0 0.0 0.00 0.00 0.00 60 1017.3
20260510140056 65 0.0 0.0 0.00 0.00 0.00 61 1017.5
20260510134605 65 0.0 0.0 0.00 0.00 0.00 66 1017.4
20260510133110 63 0.0 0.0 0.00 0.00 0.00 68 1017.5
20260510131603 61 0.0 0.0 0.00 0.00 0.00 70 1017.8
20260510130052 58 0.0 0.0 0.00 0.00 0.00 80 1017.6
20260510124557 54 0.0 0.0 0.00 0.00 0.00 90 1017.6
20260510123104 51 0.0 0.0 0.00 0.00 0.00 96 1017.4
20260510121553 49 0.0 0.0 0.00 0.00 0.00 98 1017.2
20260510120055 46 0.0 0.0 0.00 0.00 0.00 98 1017.1
20260510114549 45 0.0 0.0 0.00 0.00 0.00 97 1017.0
20260510113052 44 0.0 0.0 0.00 0.00 0.00 97 1016.8
20260510111551 43 0.0 0.0 0.00 0.00 0.00 96 1016.7
20260510110051 42 0.0 0.0 0.00 0.00 0.00 96 1016.3
20260510104550 42 0.0 0.0 0.00 0.00 0.00 96 1016.1
20260510103059 42 0.0 0.0 0.00 0.00 0.00 95 1015.9
20260510101555 42 0.0 0.0 0.00 0.00 0.00 95 1015.7
20260510100053 42 0.0 0.0 0.00 0.00 0.00 95 1015.8
20260510094552 42 0.0 0.0 0.00 0.00 0.00 96 1015.7
20260510093052 42 0.0 0.0 0.00 0.00 0.00 95 1015.6
20260510091558 42 0.0 0.0 0.00 0.00 0.00 94 1015.5
20260510090114 43 0.0 0.0 0.00 0.00 0.00 94 1015.3
20260510084555 43 0.0 0.0 0.00 0.00 0.00 95 1015.2
20260510083056 43 0.0 0.0 0.00 0.00 0.00 94 1015.2
20260510081555 43 0.0 0.0 0.00 0.00 0.00 95 1015.1
20260510080056 43 0.0 0.0 0.00 0.00 0.00 94 1015.1
20260510074550 43 0.0 0.0 0.00 0.00 0.00 94 1014.9
20260510073105 44 0.0 0.0 0.00 0.00 0.00 94 1014.8
20260510071605 44 0.0 0.0 0.00 0.00 0.00 93 1014.8
20260510070050 44 0.0 0.0 0.00 0.00 0.00 93 1014.7
20260510064601 45 0.0 0.0 0.00 0.00 0.00 93 1014.7
20260510063053 46 0.0 0.0 0.00 0.00 0.00 93 1014.7
20260510061556 46 0.0 0.0 0.00 0.00 0.00 93 1014.6
20260510060056 45 0.0 0.0 0.00 0.00 0.00 92 1014.5
20260510054552 46 0.0 0.0 0.00 0.00 0.00 91 1014.6
20260510053056 47 0.0 0.0 0.00 0.00 0.00 92 1014.6
20260510051555 47 0.0 0.0 0.00 0.00 0.00 91 1014.6
20260510050053 47 0.0 0.0 0.00 0.00 0.00 91 1014.7
20260510044553 48 0.0 0.0 0.00 0.00 0.00 91 1014.6
20260510043107 48 0.0 0.0 0.00 0.00 0.00 89 1014.6
20260510041556 48 0.0 0.0 0.00 0.00 0.00 89 1014.7
20260510040110 49 0.0 0.0 0.00 0.00 0.00 88 1014.5
20260510034552 49 0.0 0.0 0.00 0.00 0.00 87 1014.5
20260510033054 50 0.0 0.0 0.00 0.00 0.00 86 1014.5
20260510031557 51 0.0 0.0 0.00 0.00 0.00 85 1014.3
20260510030056 51 0.0 0.0 0.00 0.00 0.00 85 1014.3
20260510024553 52 0.0 0.0 0.00 0.00 0.00 83 1014.4
20260510023306 52 0.0 0.0 0.00 0.00 0.00 82 1014.5
20260510021601 53 0.0 0.0 0.00 0.00 0.00 80 1014.4
20260510020053 54 0.0 0.0 0.00 0.00 0.00 77 1014.2
20260510014606 55 0.0 0.0 0.00 0.00 0.00 75 1013.8
20260510013100 56 0.0 0.0 0.00 0.00 0.00 73 1013.4
20260510011557 57 0.0 0.0 0.00 0.00 0.00 71 1013.2
20260510010052 58 0.0 0.0 0.00 0.00 0.00 70 1013.1
20260510004556 59 0.0 0.0 0.00 0.00 0.00 67 1013.1
20260510003057 61 0.0 0.0 0.00 0.00 0.00 65 1013.0
20260510001557 61 0.0 0.0 0.00 0.00 0.00 63 1012.9
20260510000059 62 0.0 0.0 0.00 0.00 0.00 62 1012.7
20260509234553 63 0.0 0.0 0.00 0.00 0.00 60 1012.4
20260509233055 64 0.0 0.0 0.00 0.00 0.00 60 1012.3
20260509231551 64 0.0 0.0 0.00 0.00 0.00 59 1012.1
20260509230052 64 0.0 0.0 0.00 0.00 0.00 58 1012.1
20260509224557 65 0.0 0.0 0.00 0.00 0.00 57 1012.1
20260509223056 66 0.0 0.0 0.00 0.00 0.00 57 1012.2
20260509221605 66 0.0 0.0 0.00 0.00 0.00 57 1012.3
20260509220100 66 0.0 0.0 0.00 0.00 0.00 56 1012.2
20260509214601 65 0.0 0.0 0.00 0.00 0.00 57 1012.2
20260509213054 65 0.0 0.0 0.00 0.00 0.00 58 1012.2
20260509211557 65 0.0 0.0 0.00 0.00 0.00 56 1012.1
20260509210113 65 0.0 0.0 0.00 0.00 0.00 56 1011.8
20260509204558 65 0.0 0.0 0.00 0.00 0.00 56 1011.8
20260509203059 65 0.0 0.0 0.00 0.00 0.00 55 1011.7
20260509201559 65 0.0 0.0 0.00 0.00 0.00 56 1011.5
20260509194558 65 0.0 0.0 0.00 0.00 0.00 58 1011.5
20260509193053 65 0.0 0.0 0.00 0.00 0.00 57 1011.4
20260509191550 64 0.0 0.0 0.00 0.00 0.00 55 1011.4
20260509190107 65 0.0 0.0 0.00 0.00 0.00 53 1011.4
20260509184552 66 0.0 0.0 0.00 0.00 0.00 50 1011.4
20260509183057 65 0.0 0.0 0.00 0.00 0.00 53 1011.5
20260509181559 66 0.0 0.0 0.00 0.00 0.00 53 1011.4
20260509180059 64 0.0 0.0 0.00 0.00 0.00 55 1011.5